TimeEST,TemperatureF,Dew PointF,Humidity,Sea Level PressureIn,VisibilityMPH,Wind Direction,Wind SpeedMPH,Gust SpeedMPH,PrecipitationIn,Events,Conditions,WindDirDegrees,DateUTC
12:15 AM,35.6,19.4,52,29.89,10.0,Calm,Calm,-,N/A,,Overcast,0,2013-02-05 05:15:00
12:35 AM,35.6,21.2,56,29.88,10.0,SSW,3.5,-,N/A,,Scattered Clouds,200,2013-02-05 05:35:00
12:55 AM,33.8,19.4,56,29.88,10.0,Calm,Calm,-,N/A,,Clear,0,2013-02-05 05:55:00
1:15 AM,33.8,21.2,60,29.88,10.0,Calm,Calm,-,N/A,,Clear,0,2013-02-05 06:15:00
1:35 AM,33.8,21.2,60,29.87,10.0,SSW,3.5,-,N/A,,Mostly Cloudy,200,2013-02-05 06:35:00
1:55 AM,35.6,21.2,56,29.87,10.0,SSW,3.5,-,N/A,,Scattered Clouds,200,2013-02-05 06:55:00
2:15 AM,35.6,21.2,56,29.87,10.0,SSW,3.5,-,N/A,,Scattered Clouds,210,2013-02-05 07:15:00
2:35 AM,35.6,23.0,60,29.87,10.0,Calm,Calm,-,N/A,,Mostly Cloudy,0,2013-02-05 07:35:00
2:55 AM,35.6,23.0,60,29.86,10.0,SSW,3.5,-,N/A,,Overcast,210,2013-02-05 07:55:00
3:15 AM,35.6,24.8,65,29.86,10.0,SW,3.5,-,N/A,,Mostly Cloudy,230,2013-02-05 08:15:00
3:35 AM,35.6,24.8,65,29.86,10.0,Calm,Calm,-,N/A,,Overcast,0,2013-02-05 08:35:00
3:55 AM,35.6,24.8,65,29.85,10.0,Calm,Calm,-,N/A,,Mostly Cloudy,0,2013-02-05 08:55:00
4:15 AM,33.8,24.8,70,29.84,10.0,Calm,Calm,-,N/A,,Scattered Clouds,0,2013-02-05 09:15:00
4:35 AM,35.6,24.8,65,29.85,10.0,Calm,Calm,-,N/A,,Overcast,0,2013-02-05 09:35:00
4:55 AM,35.6,24.8,65,29.85,10.0,Calm,Calm,-,N/A,,Overcast,0,2013-02-05 09:55:00
5:15 AM,35.6,24.8,65,29.85,10.0,Calm,Calm,-,N/A,,Overcast,0,2013-02-05 10:15:00
5:35 AM,37.4,24.8,60,29.86,10.0,Calm,Calm,-,N/A,,Overcast,0,2013-02-05 10:35:00
5:55 AM,35.6,24.8,65,29.86,10.0,SSW,3.5,-,N/A,,Mostly Cloudy,200,2013-02-05 10:55:00
6:15 AM,37.4,26.6,65,29.86,10.0,SSW,4.6,-,N/A,,Mostly Cloudy,200,2013-02-05 11:15:00
6:35 AM,37.4,26.6,65,29.85,10.0,Calm,Calm,-,N/A,,Mostly Cloudy,0,2013-02-05 11:35:00
6:55 AM,37.4,26.6,65,29.86,10.0,Calm,Calm,-,N/A,,Mostly Cloudy,0,2013-02-05 11:55:00
7:15 AM,37.4,26.6,65,29.87,10.0,SW,3.5,-,N/A,,Clear,220,2013-02-05 12:15:00
7:35 AM,37.4,26.6,65,29.87,10.0,Calm,Calm,-,N/A,,Scattered Clouds,0,2013-02-05 12:35:00
7:55 AM,37.4,26.6,65,29.88,10.0,Calm,Calm,-,N/A,,Scattered Clouds,0,2013-02-05 12:55:00
8:15 AM,37.4,26.6,65,29.88,10.0,SSW,4.6,-,N/A,,Clear,210,2013-02-05 13:15:00
8:35 AM,39.2,26.6,61,29.89,10.0,SW,4.6,-,N/A,,Clear,220,2013-02-05 13:35:00
9:15 AM,42.8,26.6,53,29.89,10.0,SW,5.8,-,N/A,,Clear,230,2013-02-05 14:15:00
9:35 AM,42.8,26.6,53,29.89,10.0,SW,5.8,-,N/A,,Clear,230,2013-02-05 14:35:00
9:55 AM,44.6,26.6,49,29.89,10.0,SW,9.2,-,N/A,,Clear,220,2013-02-05 14:55:00
10:15 AM,44.6,26.6,49,29.88,10.0,SW,6.9,-,N/A,,Clear,230,2013-02-05 15:15:00
10:35 AM,44.6,28.4,53,29.88,10.0,SW,6.9,-,N/A,,Clear,230,2013-02-05 15:35:00
10:55 AM,44.6,28.4,53,29.89,10.0,SW,5.8,-,N/A,,Clear,220,2013-02-05 15:55:00
11:15 AM,46.4,28.4,50,29.89,10.0,SW,6.9,-,N/A,,Clear,230,2013-02-05 16:15:00
11:35 AM,48.2,28.4,46,29.88,10.0,SW,4.6,-,N/A,,Clear,230,2013-02-05 16:35:00
11:55 AM,48.2,28.4,46,29.88,10.0,SW,6.9,-,N/A,,Scattered Clouds,230,2013-02-05 16:55:00
12:15 PM,51.8,28.4,41,29.86,10.0,WSW,8.1,-,N/A,,Scattered Clouds,240,2013-02-05 17:15:00
12:35 PM,51.8,28.4,41,29.85,10.0,WSW,4.6,-,N/A,,Clear,240,2013-02-05 17:35:00
12:55 PM,53.6,30.2,41,29.83,10.0,WSW,5.8,-,N/A,,Clear,240,2013-02-05 17:55:00
1:15 PM,53.6,30.2,41,29.82,10.0,WSW,8.1,-,N/A,,Clear,240,2013-02-05 18:15:00
1:35 PM,55.4,30.2,38,29.82,10.0,SW,9.2,-,N/A,,Clear,230,2013-02-05 18:35:00
1:55 PM,55.4,30.2,38,29.81,10.0,West,11.5,20.7,N/A,,Clear,270,2013-02-05 18:55:00
2:15 PM,57.2,32.0,38,29.81,10.0,SW,9.2,16.1,N/A,,Clear,230,2013-02-05 19:15:00
2:35 PM,55.4,30.2,38,29.80,10.0,WSW,8.1,16.1,N/A,,Scattered Clouds,240,2013-02-05 19:35:00
2:55 PM,57.2,30.2,36,29.80,10.0,WSW,8.1,-,N/A,,Scattered Clouds,240,2013-02-05 19:55:00
3:15 PM,55.4,32.0,41,29.81,10.0,West,9.2,-,N/A,,Overcast,260,2013-02-05 20:15:00
3:35 PM,55.4,32.0,41,29.81,10.0,West,6.9,-,N/A,,Mostly Cloudy,260,2013-02-05 20:35:00
3:55 PM,55.4,30.2,38,29.81,10.0,West,12.7,19.6,N/A,,Scattered Clouds,260,2013-02-05 20:55:00
4:15 PM,55.4,30.2,38,29.82,10.0,West,9.2,17.3,N/A,,Clear,260,2013-02-05 21:15:00
4:35 PM,55.4,28.4,36,29.83,10.0,West,15.0,20.7,N/A,,Clear,270,2013-02-05 21:35:00
4:55 PM,53.6,28.4,38,29.83,10.0,West,12.7,18.4,N/A,,Clear,260,2013-02-05 21:55:00
5:15 PM,53.6,30.2,41,29.83,10.0,West,6.9,-,N/A,,Clear,260,2013-02-05 22:15:00
5:35 PM,53.6,30.2,41,29.83,10.0,West,8.1,-,N/A,,Clear,260,2013-02-05 22:35:00
5:55 PM,51.8,30.2,44,29.84,10.0,West,6.9,-,N/A,,Clear,260,2013-02-05 22:55:00
6:15 PM,51.8,30.2,44,29.84,10.0,West,5.8,-,N/A,,Clear,270,2013-02-05 23:15:00
6:35 PM,51.8,30.2,44,29.84,10.0,West,5.8,-,N/A,,Clear,270,2013-02-05 23:35:00
6:55 PM,50.0,28.4,43,29.85,10.0,West,4.6,-,N/A,,Clear,260,2013-02-05 23:55:00
7:15 PM,50.0,30.2,47,29.86,10.0,WSW,4.6,-,N/A,,Clear,240,2013-02-06 00:15:00
7:35 PM,50.0,30.2,47,29.86,10.0,WSW,3.5,-,N/A,,Clear,240,2013-02-06 00:35:00
7:55 PM,48.2,30.2,50,29.87,10.0,Calm,Calm,-,N/A,,Clear,0,2013-02-06 00:55:00
8:15 PM,48.2,30.2,50,29.87,10.0,West,4.6,-,N/A,,Clear,260,2013-02-06 01:15:00
8:35 PM,48.2,30.2,50,29.87,10.0,West,6.9,-,N/A,,Clear,260,2013-02-06 01:35:00
8:55 PM,48.2,30.2,50,29.87,10.0,WSW,6.9,-,N/A,,Clear,250,2013-02-06 01:55:00
9:15 PM,48.2,30.2,50,29.87,10.0,WSW,4.6,-,N/A,,Clear,250,2013-02-06 02:15:00
9:35 PM,46.4,30.2,53,29.88,10.0,WSW,3.5,-,N/A,,Clear,250,2013-02-06 02:35:00
9:55 PM,42.8,30.2,61,29.89,10.0,Calm,Calm,-,N/A,,Clear,0,2013-02-06 02:55:00
10:15 PM,42.8,30.2,61,29.89,10.0,Calm,Calm,-,N/A,,Clear,0,2013-02-06 03:15:00
10:35 PM,39.2,30.2,70,29.89,10.0,Calm,Calm,-,N/A,,Clear,0,2013-02-06 03:35:00
10:55 PM,39.2,30.2,70,29.90,10.0,Calm,Calm,-,N/A,,Clear,0,2013-02-06 03:55:00
11:15 PM,37.4,30.2,75,29.90,10.0,Calm,Calm,-,N/A,,Clear,0,2013-02-06 04:15:00
11:35 PM,42.8,30.2,61,29.89,10.0,SW,3.5,-,N/A,,Clear,230,2013-02-06 04:35:00
11:55 PM,42.8,30.2,61,29.90,10.0,Calm,Calm,-,N/A,,Clear,0,2013-02-06 04:55:00